Location: Artiguedieu
(43.5000°N, 0.5454°E)
Time: 19:56:43
(UTC+00:00)

Transit 2A - Pass Details

Date: 01 August 2021
Orbit: 594 x 964 km, 66.7° (Epoch: 28 September)

Event Time Altitude Azimuth Distance (km) Brightness Sun altitude
Rises 05:11:25 0° 177° (S) 2,818 8.7 3.1°
Reaches altitude 10° 05:13:56 10° 163° (SSE) 1,934 8.1 3.6°
Maximum altitude 05:17:24 24° 109° (ESE) 1,285 8.0 4.1°
Drops below altitude 10° 05:21:01 10° 56° (NE) 2,034 10.2 4.8°
Sets 05:23:44 0° 43° (NE) 3,001 10.4 5.2°
